Regional Weather Roundup
Issued by NWS State College, PA

Home | Current Version | Previous Version | Graphics & Text | Print | Product List | Glossary On
Versions: 1 2 3 4 5 6 7 8 9 10 11 12 13 14 15 16 17 18 19 20 21 22 23 24 25 26 27 28 29 30 31 32 33 34 35 36 37 38 39 40 41 42 43 44 45 46 47 48 49 50
000
ASUS41 KCTP 230103
RWRCTP

REGIONAL WEATHER ROUNDUP
NATIONAL WEATHER SERVICE STATE COLLEGE PA
900 PM EDT TUE APR 22 2014

Note: "fair" indicates few or no clouds below 12,000 feet with no
significant weather and/or obstructions to visibility.

* = STATION THAT DOES NOT REPORT PRECIPITATION /E.G. RAIN...SNOW...ETC/
    THUNDER OR FOG.

PAZ002>004-007>009-013>016-020>023-029>032-230200-
WESTERN PENNSYLVANIA

CITY           SKY/WX    TMP DP  RH WIND       PRES   REMARKS
ERIE           CLOUDY    41  35  79 W8        29.79R
MEADVILLE      CLOUDY    42  35  76 NW6       29.77R
FRANKLIN*      CLOUDY    43  30  61 W8        29.79R
NEW CASTLE     CLOUDY    46  34  63 NW8       29.80R
BEAVER COUNTY  CLOUDY    48  36  61 NW12G23   29.78R
BUTLER*        CLOUDY    46  36  66 NW6       29.79R
PITTSBURGH INT PTCLDY    49  37  63 NW21G28   29.77R
PITTSBURGH     PTCLDY    50  38  63 N10       29.76R
INDIANA*       PTCLDY    45  37  76 NW7       29.76R
LATROBE        CLOUDY    48  41  76 N12       29.77R
WASHINGTON CO* PTCLDY    48  39  71 N6        29.79R
$$

PAZ004>006-010>012-017>019-024>028-033>037-041-042-045-046-049>053-230200-
CENTRAL PENNSYLVANIA

CITY           SKY/WX    TMP DP  RH WIND       PRES   REMARKS
BRADFORD       CLOUDY    40  29  64 W17G31    29.70R
DUBOIS         CLOUDY    44  34  67 NW12G20   29.72R
CLEARFIELD     PTCLDY    45  34  65 NW16      29.71R
JOHNSTOWN      PTCLDY    44  36  73 NW25G32   29.70R
ALTOONA        CLEAR     50  40  68 NW12      29.68R
STATE COLLEGE  PTCLDY    50  32  50 NW14G22   29.66R
WILLIAMSPORT   CLEAR     59  43  55 W13       29.57R
SELINSGROVE    CLEAR     54  49  83 W3        29.60R
FT INDIANTOWN  PTCLDY    54  54 100 W7        29.60R
CAPITAL CITY   PTCLDY    55  50  83 CALM      29.61R
HARRISBURG     PTCLDY    54  51  90 CALM      29.60R
YORK           MOCLDY    53  50  89 W3        29.62R
$$

PAZ038>040-043-044-047-048-054-055-060>062-067>071-230200-
EASTERN PENNSYLVANIA

CITY           SKY/WX    TMP DP  RH WIND       PRES   REMARKS
SCRANTON       CLOUDY    59  48  67 SW7       29.54F
MOUNT POCONO   CLOUDY    55  46  71 W8        29.56S
ALLENTOWN      CLOUDY    56  48  74 W6        29.56R
QUAKERTOWN*    CLOUDY    61  50  67 SW5       29.56F
READING        CLOUDY    56  48  74 W7        29.58R
LANCASTER      MOCLDY    53  50  89 W7        29.60R
COATESVILLE    CLOUDY    52  52 100 W3        29.60R
POTTSTOWN      CLOUDY    54  51  90 W6        29.59F
BLUE BELL      CLOUDY    57  52  82 CALM      29.55F
DOYLESTOWN     LGT RAIN  60  53  77 SW8G18    29.55F
WILLOW GROVE   NOT AVBL
NORTH PHILA    CLOUDY    60  48  64 W12       29.59S
PHILADELPHIA   MOCLDY    60  47  61 N8        29.57F
$$



USA.gov is the U.S. government's official web portal to all federal, state and local government web resources and services.